Zurück zum Katalog

THOR ABLESTAR DEB

AktivLEO
NORAD 234·DEBRIS·🇺🇸 United States

Gestartet Jun 29, 1961 von Cape Canaveral Space Force Station

Loading…

Nächste Überflüge (nächste 24 Stunden)

TLE

AktuellSource: Space-Track

Epoche: Sep 10, 2026, 12:23 UTC

1   234U 61015BS  26253.51641376  .00000078  00000-0  97282-4 0  9990
2   234  66.8766 308.8364 0063407  64.3221 296.4395 14.04146797323414

Verfolge THOR ABLESTAR DEB in Echtzeit mit AllMySat

Download on the App Store